Time,TemperatureF,DewpointF,PressureIn,WindDirection,WindDirectionDegrees,WindSpeedMPH,WindSpeedGustMPH,Humidity,HourlyPrecipIn,Conditions,Clouds,dailyrainin,SoftwareType,DateUTC
2013-04-03 00:00:00,33.5,16.9,30.12,WNW,302,3.0,9.0,50,0.00,,CLR,0.00,VWS V14.01,2013-04-03 04:00:00,
2013-04-03 00:02:00,33.4,16.8,30.12,WNW,286,5.0,8.0,50,0.00,,CLR,0.00,VWS V14.01,2013-04-03 04:02:00,
2013-04-03 00:07:00,33.3,16.7,30.13,NW,322,1.0,8.0,50,0.00,,CLR,0.00,VWS V14.01,2013-04-03 04:07:00,
2013-04-03 00:12:00,33.2,16.6,30.13,WNW,283,7.0,7.0,50,0.00,,CLR,0.00,VWS V14.01,2013-04-03 04:12:00,
2013-04-03 00:17:00,33.2,16.6,30.12,WNW,288,3.0,10.0,50,0.00,,CLR,0.00,VWS V14.01,2013-04-03 04:17:00,
2013-04-03 00:22:00,33.1,16.5,30.12,West,278,3.0,6.0,50,0.00,,CLR,0.00,VWS V14.01,2013-04-03 04:22:00,
2013-04-03 00:27:00,32.9,16.8,30.13,West,278,4.0,7.0,51,0.00,,CLR,0.00,VWS V14.01,2013-04-03 04:27:00,
2013-04-03 00:33:00,32.8,16.7,30.12,WNW,295,5.0,7.0,51,0.00,,CLR,0.00,VWS V14.01,2013-04-03 04:33:00,
2013-04-03 00:38:00,32.6,16.5,30.13,NNW,338,7.0,8.0,51,0.00,,CLR,0.00,VWS V14.01,2013-04-03 04:38:00,
2013-04-03 00:43:00,32.5,16.4,30.13,West,263,5.0,10.0,51,0.00,,CLR,0.00,VWS V14.01,2013-04-03 04:43:00,
2013-04-03 00:48:00,32.6,16.5,30.13,NW,307,8.0,9.0,51,0.00,,CLR,0.00,VWS V14.01,2013-04-03 04:48:00,
2013-04-03 00:53:00,32.6,16.5,30.13,WNW,297,3.0,10.0,51,0.00,,CLR,0.00,VWS V14.01,2013-04-03 04:53:00,
2013-04-03 00:58:00,32.6,16.0,30.13,WNW,302,6.0,9.0,50,0.00,,CLR,0.00,VWS V14.01,2013-04-03 04:58:00,
2013-04-03 01:03:00,32.7,15.7,30.13,NW,311,3.0,8.0,49,0.00,,CLR,0.00,VWS V14.01,2013-04-03 05:03:00,
2013-04-03 01:08:00,32.8,15.8,30.13,NW,305,3.0,12.0,49,0.00,,CLR,0.00,VWS V14.01,2013-04-03 05:08:00,
2013-04-03 01:13:00,32.7,15.7,30.13,West,280,5.0,6.0,49,0.00,,CLR,0.00,VWS V14.01,2013-04-03 05:13:00,
2013-04-03 01:18:00,32.5,15.5,30.13,NW,307,7.0,8.0,49,0.00,,CLR,0.00,VWS V14.01,2013-04-03 05:18:00,
2013-04-03 01:23:00,32.3,15.3,30.13,NW,319,4.0,6.0,49,0.00,,CLR,0.00,VWS V14.01,2013-04-03 05:23:00,
2013-04-03 01:28:00,32.1,15.1,30.13,WNW,283,4.0,8.0,49,0.00,,CLR,0.00,VWS V14.01,2013-04-03 05:28:00,
2013-04-03 01:34:00,32.2,14.7,30.13,West,277,2.0,8.0,48,0.00,,CLR,0.00,VWS V14.01,2013-04-03 05:34:00,
2013-04-03 01:39:00,32.1,14.6,30.13,West,278,7.0,8.0,48,0.00,,CLR,0.00,VWS V14.01,2013-04-03 05:39:00,
2013-04-03 01:44:00,32.1,14.6,30.13,WNW,286,4.0,8.0,48,0.00,,CLR,0.00,VWS V14.01,2013-04-03 05:44:00,
2013-04-03 01:49:00,31.9,14.4,30.13,WNW,288,2.0,8.0,48,0.00,,CLR,0.00,VWS V14.01,2013-04-03 05:49:00,
2013-04-03 01:54:00,31.7,14.7,30.13,West,276,2.0,7.0,49,0.00,,CLR,0.00,VWS V14.01,2013-04-03 05:54:00,
2013-04-03 01:59:00,31.4,14.5,30.13,West,276,4.0,8.0,49,0.00,,CLR,0.00,VWS V14.01,2013-04-03 05:59:00,
2013-04-03 02:04:00,31.0,15.0,30.13,West,266,1.0,4.0,51,0.00,,CLR,0.00,VWS V14.01,2013-04-03 06:04:00,
2013-04-03 02:09:00,30.7,14.7,30.13,WNW,283,1.0,5.0,51,0.00,,CLR,0.00,VWS V14.01,2013-04-03 06:09:00,
2013-04-03 02:14:00,30.6,14.6,30.13,WNW,291,1.0,4.0,51,0.00,,CLR,0.00,VWS V14.01,2013-04-03 06:14:00,
2013-04-03 02:19:00,30.5,14.5,30.13,West,281,1.0,5.0,51,0.00,,CLR,0.00,VWS V14.01,2013-04-03 06:19:00,
2013-04-03 02:24:00,30.4,14.4,30.13,West,280,0.0,3.0,51,0.00,,CLR,0.00,VWS V14.01,2013-04-03 06:24:00,
2013-04-03 02:29:00,30.4,14.4,30.13,West,274,1.0,4.0,51,0.00,,CLR,0.00,VWS V14.01,2013-04-03 06:29:00,
2013-04-03 02:34:00,30.3,14.8,30.13,West,278,1.0,4.0,52,0.00,,CLR,0.00,VWS V14.01,2013-04-03 06:34:00,
2013-04-03 02:39:00,30.1,14.6,30.13,West,278,1.0,5.0,52,0.00,,CLR,0.00,VWS V14.01,2013-04-03 06:39:00,
2013-04-03 02:44:00,30.2,14.7,30.12,West,281,4.0,7.0,52,0.00,,CLR,0.00,VWS V14.01,2013-04-03 06:44:00,
2013-04-03 02:49:00,30.3,14.8,30.13,WNW,283,1.0,4.0,52,0.00,,CLR,0.00,VWS V14.01,2013-04-03 06:49:00,
2013-04-03 02:54:00,30.0,15.0,30.13,WNW,283,4.0,4.0,53,0.00,,CLR,0.00,VWS V14.01,2013-04-03 06:54:00,
2013-04-03 02:59:00,29.8,15.2,30.13,West,271,0.0,3.0,54,0.00,,CLR,0.00,VWS V14.01,2013-04-03 06:59:00,
2013-04-03 03:04:00,29.5,14.9,30.13,WNW,283,1.0,1.0,54,0.00,,CLR,0.00,VWS V14.01,2013-04-03 07:04:00,
2013-04-03 03:09:00,29.4,14.8,30.13,WNW,284,2.0,2.0,54,0.00,,CLR,0.00,VWS V14.01,2013-04-03 07:09:00,
2013-04-03 03:14:00,29.3,14.7,30.13,West,269,0.0,1.0,54,0.00,,CLR,0.00,VWS V14.01,2013-04-03 07:14:00,
2013-04-03 03:19:00,29.2,15.1,30.13,West,270,1.0,2.0,55,0.00,,CLR,0.00,VWS V14.01,2013-04-03 07:19:00,
2013-04-03 03:24:00,29.0,14.9,30.13,WSW,239,0.0,2.0,55,0.00,,CLR,0.00,VWS V14.01,2013-04-03 07:24:00,
2013-04-03 03:29:00,28.7,14.6,30.13,WSW,242,0.0,0.0,55,0.00,,CLR,0.00,VWS V14.01,2013-04-03 07:29:00,
2013-04-03 03:34:00,28.3,14.6,30.13,WSW,242,0.0,0.0,56,0.00,,CLR,0.00,VWS V14.01,2013-04-03 07:34:00,
2013-04-03 03:39:00,28.0,14.8,30.13,WSW,242,0.0,0.0,57,0.00,,CLR,0.00,VWS V14.01,2013-04-03 07:39:00,
2013-04-03 03:44:00,28.2,14.5,30.13,WSW,248,0.0,0.0,56,0.00,,CLR,0.00,VWS V14.01,2013-04-03 07:44:00,
2013-04-03 03:49:00,28.2,14.9,30.13,WSW,251,0.0,0.0,57,0.00,,CLR,0.00,VWS V14.01,2013-04-03 07:49:00,
2013-04-03 03:54:00,28.1,14.8,30.14,WSW,252,0.0,0.0,57,0.00,,CLR,0.00,VWS V14.01,2013-04-03 07:54:00,
2013-04-03 03:59:00,28.0,14.8,30.14,WSW,251,0.0,0.0,57,0.00,,CLR,0.00,VWS V14.01,2013-04-03 07:59:00,
2013-04-03 04:04:00,28.1,14.8,30.14,West,280,0.0,2.0,57,0.00,,CLR,0.00,VWS V14.01,2013-04-03 08:04:00,
2013-04-03 04:10:00,28.1,14.8,30.14,West,280,0.0,0.0,57,0.00,,CLR,0.00,VWS V14.01,2013-04-03 08:10:00,
2013-04-03 04:15:00,28.2,14.9,30.14,West,271,0.0,1.0,57,0.00,,CLR,0.00,VWS V14.01,2013-04-03 08:15:00,
2013-04-03 04:20:00,28.2,14.5,30.14,West,264,0.0,1.0,56,0.00,,CLR,0.00,VWS V14.01,2013-04-03 08:20:00,
2013-04-03 04:25:00,28.3,14.6,30.14,West,274,0.0,0.0,56,0.00,,CLR,0.00,VWS V14.01,2013-04-03 08:25:00,
2013-04-03 04:30:00,28.3,14.6,30.14,West,267,0.0,0.0,56,0.00,,CLR,0.00,VWS V14.01,2013-04-03 08:30:00,
2013-04-03 04:35:00,28.4,14.7,30.14,West,281,0.0,2.0,56,0.00,,CLR,0.00,VWS V14.01,2013-04-03 08:35:00,
2013-04-03 04:40:00,28.3,15.0,30.15,WNW,283,0.0,0.0,57,0.00,,CLR,0.00,VWS V14.01,2013-04-03 08:40:00,
2013-04-03 04:45:00,28.2,14.9,30.15,West,276,0.0,0.0,57,0.00,,CLR,0.00,VWS V14.01,2013-04-03 08:45:00,
2013-04-03 04:50:00,28.3,15.0,30.15,West,277,1.0,2.0,57,0.00,,CLR,0.00,VWS V14.01,2013-04-03 08:50:00,
2013-04-03 04:55:00,28.5,15.2,30.15,WNW,288,1.0,1.0,57,0.00,,CLR,0.00,VWS V14.01,2013-04-03 08:55:00,
2013-04-03 05:00:00,28.6,14.9,30.15,WNW,293,1.0,2.0,56,0.00,,CLR,0.00,VWS V14.01,2013-04-03 09:00:00,
2013-04-03 05:05:00,28.6,14.9,30.15,WNW,287,0.0,1.0,56,0.00,,CLR,0.00,VWS V14.01,2013-04-03 09:05:00,
2013-04-03 05:10:00,28.7,15.0,30.15,West,278,1.0,1.0,56,0.00,,CLR,0.00,VWS V14.01,2013-04-03 09:10:00,
2013-04-03 05:15:00,28.8,15.5,30.15,WNW,297,2.0,3.0,57,0.00,,CLR,0.00,VWS V14.01,2013-04-03 09:15:00,
2013-04-03 05:21:00,28.8,15.5,30.15,West,276,0.0,2.0,57,0.00,,CLR,0.00,VWS V14.01,2013-04-03 09:21:00,
2013-04-03 05:26:00,28.7,15.4,30.15,West,276,0.0,3.0,57,0.00,,CLR,0.00,VWS V14.01,2013-04-03 09:26:00,
2013-04-03 05:31:00,28.8,15.5,30.16,WNW,293,1.0,3.0,57,0.00,,CLR,0.00,VWS V14.01,2013-04-03 09:31:00,
2013-04-03 05:36:00,29.0,15.7,30.16,WNW,283,2.0,4.0,57,0.00,,CLR,0.00,VWS V14.01,2013-04-03 09:36:00,
2013-04-03 05:42:00,28.9,15.6,30.16,WNW,284,3.0,4.0,57,0.00,,CLR,0.00,VWS V14.01,2013-04-03 09:42:00,
2013-04-03 05:47:00,29.1,15.8,30.16,WNW,283,2.0,5.0,57,0.00,,CLR,0.00,VWS V14.01,2013-04-03 09:47:00,
2013-04-03 05:52:00,29.1,15.8,30.16,WNW,288,2.0,2.0,57,0.00,,CLR,0.00,VWS V14.01,2013-04-03 09:52:00,
2013-04-03 05:57:00,29.2,15.5,30.16,WNW,284,1.0,3.0,56,0.00,,CLR,0.00,VWS V14.01,2013-04-03 09:57:00,
2013-04-03 06:02:00,29.2,15.5,30.16,West,276,1.0,4.0,56,0.00,,CLR,0.00,VWS V14.01,2013-04-03 10:02:00,
2013-04-03 06:07:00,29.1,15.8,30.17,WNW,290,0.0,3.0,57,0.00,,CLR,0.00,VWS V14.01,2013-04-03 10:07:00,
2013-04-03 06:12:00,29.0,15.7,30.17,West,281,1.0,4.0,57,0.00,,CLR,0.00,VWS V14.01,2013-04-03 10:12:00,
2013-04-03 06:17:00,28.9,15.6,30.17,WNW,295,2.0,2.0,57,0.00,,CLR,0.00,VWS V14.01,2013-04-03 10:17:00,
2013-04-03 06:22:00,28.9,15.6,30.17,WNW,287,0.0,2.0,57,0.00,,CLR,0.00,VWS V14.01,2013-04-03 10:22:00,
2013-04-03 06:27:00,28.8,15.5,30.17,West,272,0.0,2.0,57,0.00,,CLR,0.00,VWS V14.01,2013-04-03 10:27:00,
2013-04-03 06:32:00,28.7,15.4,30.17,WNW,300,2.0,3.0,57,0.00,,CLR,0.00,VWS V14.01,2013-04-03 10:32:00,
2013-04-03 06:37:00,28.6,15.3,30.18,NW,304,0.0,3.0,57,0.00,,CLR,0.00,VWS V14.01,2013-04-03 10:37:00,
2013-04-03 06:42:00,28.6,15.3,30.18,WNW,288,2.0,2.0,57,0.00,,CLR,0.00,VWS V14.01,2013-04-03 10:42:00,
2013-04-03 06:48:00,28.6,15.3,30.18,WNW,288,2.0,2.0,57,0.00,,CLR,0.00,VWS V14.01,2013-04-03 10:48:00,
2013-04-03 06:53:00,28.6,15.3,30.18,WNW,288,2.0,2.0,57,0.00,,CLR,0.00,VWS V14.01,2013-04-03 10:53:00,
2013-04-03 06:58:00,28.6,15.3,30.18,WNW,288,2.0,2.0,57,0.00,,CLR,0.00,VWS V14.01,2013-04-03 10:58:00,
2013-04-03 07:03:00,28.6,15.3,30.18,WNW,288,2.0,2.0,57,0.00,,CLR,0.00,VWS V14.01,2013-04-03 11:03:00,
2013-04-03 07:08:00,28.6,15.3,30.18,WNW,288,2.0,2.0,57,0.00,,CLR,0.00,VWS V14.01,2013-04-03 11:08:00,
2013-04-03 07:13:00,28.6,15.3,30.19,WNW,288,2.0,2.0,57,0.00,,CLR,0.00,VWS V14.01,2013-04-03 11:13:00,
2013-04-03 07:18:00,28.6,15.3,30.18,WNW,288,2.0,2.0,57,0.00,,CLR,0.00,VWS V14.01,2013-04-03 11:18:00,
2013-04-03 07:23:00,28.6,15.3,30.18,WNW,288,2.0,2.0,57,0.00,,CLR,0.00,VWS V14.01,2013-04-03 11:23:00,
2013-04-03 07:28:00,28.6,15.3,30.19,WNW,288,2.0,2.0,57,0.00,,CLR,0.00,VWS V14.01,2013-04-03 11:28:00,
2013-04-03 07:33:00,29.4,16.9,30.19,West,281,0.0,2.0,59,0.00,,CLR,0.00,VWS V14.01,2013-04-03 11:33:00,
2013-04-03 07:38:00,29.5,17.3,30.19,West,269,1.0,3.0,60,0.00,,CLR,0.00,VWS V14.01,2013-04-03 11:38:00,
2013-04-03 07:43:00,29.7,17.5,30.20,WNW,293,0.0,3.0,60,0.00,,CLR,0.00,VWS V14.01,2013-04-03 11:43:00,
2013-04-03 07:48:00,29.9,18.1,30.20,WNW,295,1.0,5.0,61,0.00,,CLR,0.00,VWS V14.01,2013-04-03 11:48:00,
2013-04-03 07:53:00,30.1,17.9,30.20,WNW,302,6.0,7.0,60,0.00,,CLR,0.00,VWS V14.01,2013-04-03 11:53:00,
2013-04-03 07:58:00,30.5,18.3,30.20,NW,305,4.0,6.0,60,0.00,,CLR,0.00,VWS V14.01,2013-04-03 11:58:00,
2013-04-03 08:04:00,30.7,18.5,30.20,WSW,250,0.0,7.0,60,0.00,,CLR,0.00,VWS V14.01,2013-04-03 12:04:00,
2013-04-03 08:08:00,31.1,18.9,30.20,West,276,3.0,5.0,60,0.00,,CLR,0.00,VWS V14.01,2013-04-03 12:08:00,
2013-04-03 08:14:00,31.4,19.1,30.20,WNW,296,3.0,5.0,60,0.00,,CLR,0.00,VWS V14.01,2013-04-03 12:14:00,
2013-04-03 08:19:00,31.8,19.1,30.20,West,269,1.0,5.0,59,0.00,,CLR,0.00,VWS V14.01,2013-04-03 12:19:00,
2013-04-03 08:24:00,32.2,19.5,30.20,WNW,294,0.0,5.0,59,0.00,,CLR,0.00,VWS V14.01,2013-04-03 12:24:00,
2013-04-03 08:29:00,32.7,19.6,30.20,WNW,283,0.0,4.0,58,0.00,,CLR,0.00,VWS V14.01,2013-04-03 12:29:00,
2013-04-03 08:34:00,33.0,19.9,30.20,WSW,255,6.0,6.0,58,0.00,,CLR,0.00,VWS V14.01,2013-04-03 12:34:00,
2013-04-03 08:39:00,33.2,19.6,30.20,West,276,3.0,5.0,57,0.00,,CLR,0.00,VWS V14.01,2013-04-03 12:39:00,
2013-04-03 08:44:00,33.4,19.4,30.19,West,281,3.0,5.0,56,0.00,,CLR,0.00,VWS V14.01,2013-04-03 12:44:00,
2013-04-03 08:49:00,33.6,19.2,30.19,WNW,294,4.0,9.0,55,0.00,,CLR,0.00,VWS V14.01,2013-04-03 12:49:00,
2013-04-03 08:54:00,33.9,19.5,30.19,WNW,293,5.0,7.0,55,0.00,,CLR,0.00,VWS V14.01,2013-04-03 12:54:00,
2013-04-03 08:59:00,34.1,19.6,30.19,WNW,303,2.0,9.0,55,0.00,,CLR,0.00,VWS V14.01,2013-04-03 12:59:00,
2013-04-03 09:04:00,34.3,19.4,30.19,West,278,4.0,10.0,54,0.00,,CLR,0.00,VWS V14.01,2013-04-03 13:04:00,
2013-04-03 09:09:00,34.2,18.4,30.19,West,259,6.0,12.0,52,0.00,,CLR,0.00,VWS V14.01,2013-04-03 13:09:00,
2013-04-03 09:14:00,34.6,18.8,30.19,NW,315,7.0,11.0,52,0.00,,CLR,0.00,VWS V14.01,2013-04-03 13:14:00,
2013-04-03 09:19:00,34.9,18.6,30.19,WNW,303,8.0,11.0,51,0.00,,CLR,0.00,VWS V14.01,2013-04-03 13:19:00,
2013-04-03 09:24:00,35.0,18.2,30.19,NW,314,13.0,13.0,50,0.00,,CLR,0.00,VWS V14.01,2013-04-03 13:24:00,
2013-04-03 09:29:00,35.1,18.4,30.19,WNW,290,10.0,12.0,50,0.00,,CLR,0.00,VWS V14.01,2013-04-03 13:29:00,
2013-04-03 09:34:00,35.3,19.0,30.19,NW,316,8.0,11.0,51,0.00,,CLR,0.00,VWS V14.01,2013-04-03 13:34:00,
2013-04-03 09:40:00,35.5,17.8,30.18,WNW,293,6.0,12.0,48,0.00,,CLR,0.00,VWS V14.01,2013-04-03 13:40:00,
2013-04-03 09:45:00,35.3,17.6,30.19,NW,308,13.0,19.0,48,0.00,,CLR,0.00,VWS V14.01,2013-04-03 13:45:00,
2013-04-03 09:50:00,35.4,17.7,30.19,NW,326,5.0,14.0,48,0.00,,CLR,0.00,VWS V14.01,2013-04-03 13:50:00,
2013-04-03 09:55:00,35.5,18.2,30.19,NW,314,6.0,17.0,49,0.00,,CLR,0.00,VWS V14.01,2013-04-03 13:55:00,
2013-04-03 10:00:00,35.8,18.0,30.19,WNW,297,11.0,14.0,48,0.00,,CLR,0.00,VWS V14.01,2013-04-03 14:00:00,
2013-04-03 10:05:00,35.7,17.5,30.19,NW,304,8.0,22.0,47,0.00,,FEW055,0.00,VWS V14.01,2013-04-03 14:05:00,
2013-04-03 10:10:00,35.8,17.6,30.19,West,273,4.0,14.0,47,0.00,,FEW055,0.00,VWS V14.01,2013-04-03 14:10:00,
2013-04-03 10:15:00,36.2,17.9,30.20,WSW,257,4.0,15.0,47,0.00,,FEW055,0.00,VWS V14.01,2013-04-03 14:15:00,
2013-04-03 10:20:00,36.7,18.4,30.20,NNW,333,4.0,10.0,47,0.00,,FEW055,0.00,VWS V14.01,2013-04-03 14:20:00,
2013-04-03 10:25:00,36.7,17.9,30.20,West,281,9.0,14.0,46,0.00,,FEW055,0.00,VWS V14.01,2013-04-03 14:25:00,
2013-04-03 10:30:00,36.7,17.9,30.20,WNW,302,8.0,11.0,46,0.00,,FEW055,0.00,VWS V14.01,2013-04-03 14:30:00,
2013-04-03 10:35:00,37.0,18.7,30.20,WNW,298,6.0,6.0,47,0.00,,FEW055,0.00,VWS V14.01,2013-04-03 14:35:00,
2013-04-03 10:40:00,37.5,19.1,30.20,WNW,291,13.0,13.0,47,0.00,,FEW055,0.00,VWS V14.01,2013-04-03 14:40:00,
2013-04-03 10:45:00,37.6,19.2,30.20,NW,317,5.0,12.0,47,0.00,,FEW055,0.00,VWS V14.01,2013-04-03 14:45:00,
2013-04-03 10:50:00,37.4,17.5,30.20,NNW,333,12.0,16.0,44,0.00,,FEW055,0.00,VWS V14.01,2013-04-03 14:50:00,
2013-04-03 10:55:00,37.5,18.6,30.20,WNW,290,6.0,6.0,46,0.00,,FEW055,0.00,VWS V14.01,2013-04-03 14:55:00,
2013-04-03 11:00:00,37.2,18.3,30.21,West,271,6.0,8.0,46,0.00,,FEW055,0.00,VWS V14.01,2013-04-03 15:00:00,
2013-04-03 11:05:00,37.6,20.7,30.21,West,271,5.0,9.0,50,0.00,,FEW055,0.00,VWS V14.01,2013-04-03 15:05:00,
2013-04-03 11:10:00,37.7,19.3,30.21,NW,314,12.0,16.0,47,0.00,,FEW055,0.00,VWS V14.01,2013-04-03 15:10:00,
2013-04-03 11:15:00,37.3,17.4,30.21,WNW,290,9.0,19.0,44,0.00,,FEW055,0.00,VWS V14.01,2013-04-03 15:15:00,
2013-04-03 11:20:00,37.8,18.4,30.22,WSW,253,9.0,10.0,45,0.00,,FEW055,0.00,VWS V14.01,2013-04-03 15:20:00,
2013-04-03 11:25:00,38.7,19.2,30.22,WSW,255,7.0,9.0,45,0.00,,FEW055,0.00,VWS V14.01,2013-04-03 15:25:00,
2013-04-03 11:30:00,39.2,19.1,30.21,WNW,302,8.0,13.0,44,0.00,,FEW055,0.00,VWS V14.01,2013-04-03 15:30:00,
2013-04-03 11:35:00,38.8,18.2,30.21,West,276,12.0,15.0,43,0.00,,FEW055,0.00,VWS V14.01,2013-04-03 15:35:00,
2013-04-03 11:41:00,39.3,18.1,30.21,West,264,5.0,8.0,42,0.00,,FEW055,0.00,VWS V14.01,2013-04-03 15:41:00,
2013-04-03 11:46:00,39.3,18.1,30.20,NW,312,9.0,9.0,42,0.00,,FEW055,0.00,VWS V14.01,2013-04-03 15:46:00,
2013-04-03 11:51:00,39.7,19.0,30.21,West,276,7.0,7.0,43,0.00,,FEW055,0.00,VWS V14.01,2013-04-03 15:51:00,
2013-04-03 11:56:00,39.6,19.0,30.20,WNW,283,12.0,17.0,43,0.00,,FEW055,0.00,VWS V14.01,2013-04-03 15:56:00,
2013-04-03 12:01:00,39.8,17.5,30.20,West,260,6.0,13.0,40,0.00,,FEW055,0.00,VWS V14.01,2013-04-03 16:01:00,
2013-04-03 12:06:00,40.0,18.8,30.20,WNW,298,7.0,11.0,42,0.00,,SCT060,0.00,VWS V14.01,2013-04-03 16:06:00,
2013-04-03 12:12:00,40.3,18.5,30.19,WSW,257,12.0,16.0,41,0.00,,SCT060,0.00,VWS V14.01,2013-04-03 16:12:00,
2013-04-03 12:17:00,40.7,18.9,30.19,WNW,300,4.0,16.0,41,0.00,,SCT060,0.00,VWS V14.01,2013-04-03 16:17:00,
2013-04-03 12:22:00,40.8,16.6,30.19,West,267,7.0,12.0,37,0.00,,SCT060,0.00,VWS V14.01,2013-04-03 16:22:00,
2013-04-03 12:27:00,40.4,17.4,30.18,NW,305,11.0,18.0,39,0.00,,SCT060,0.00,VWS V14.01,2013-04-03 16:27:00,
2013-04-03 12:32:00,41.0,17.4,30.19,WNW,288,4.0,11.0,38,0.00,,SCT060,0.00,VWS V14.01,2013-04-03 16:32:00,
2013-04-03 12:37:00,40.7,17.1,30.19,NW,304,5.0,20.0,38,0.00,,SCT060,0.00,VWS V14.01,2013-04-03 16:37:00,
2013-04-03 12:43:00,40.6,18.2,30.19,WNW,290,8.0,10.0,40,0.00,,SCT060,0.00,VWS V14.01,2013-04-03 16:43:00,
2013-04-03 12:48:00,41.1,19.8,30.19,WNW,290,7.0,11.0,42,0.00,,SCT060,0.00,VWS V14.01,2013-04-03 16:48:00,
2013-04-03 12:53:00,41.3,18.8,30.19,WNW,298,12.0,15.0,40,0.00,,SCT060,0.00,VWS V14.01,2013-04-03 16:53:00,
2013-04-03 12:58:00,41.7,18.0,30.19,West,262,7.0,14.0,38,0.00,,SCT060,0.00,VWS V14.01,2013-04-03 16:58:00,
2013-04-03 13:03:00,41.7,16.7,30.19,West,277,6.0,19.0,36,0.00,,CLR,0.00,VWS V14.01,2013-04-03 17:03:00,
2013-04-03 13:08:00,41.7,18.0,30.19,WNW,287,10.0,13.0,38,0.00,,CLR,0.00,VWS V14.01,2013-04-03 17:08:00,
2013-04-03 13:13:00,42.2,18.4,30.18,North,1,19.0,19.0,38,0.00,,CLR,0.00,VWS V14.01,2013-04-03 17:13:00,
2013-04-03 13:18:00,41.2,15.6,30.18,WNW,298,8.0,20.0,35,0.00,,CLR,0.00,VWS V14.01,2013-04-03 17:18:00,
2013-04-03 13:24:00,40.9,16.0,30.18,WNW,288,6.0,17.0,36,0.00,,CLR,0.00,VWS V14.01,2013-04-03 17:24:00,
2013-04-03 13:29:00,41.2,16.3,30.18,WSW,247,5.0,15.0,36,0.00,,CLR,0.00,VWS V14.01,2013-04-03 17:29:00,
2013-04-03 13:34:00,41.2,16.9,30.18,WNW,294,8.0,19.0,37,0.00,,CLR,0.00,VWS V14.01,2013-04-03 17:34:00,
2013-04-03 13:39:00,42.4,17.4,30.17,WNW,283,9.0,17.0,36,0.00,,CLR,0.00,VWS V14.01,2013-04-03 17:39:00,
2013-04-03 13:45:00,42.4,17.4,30.18,WSW,252,10.0,22.0,36,0.00,,CLR,0.00,VWS V14.01,2013-04-03 17:45:00,
2013-04-03 13:50:00,42.7,18.3,30.17,West,281,6.0,9.0,37,0.00,,CLR,0.00,VWS V14.01,2013-04-03 17:50:00,
2013-04-03 13:55:00,42.7,18.3,30.17,West,266,8.0,15.0,37,0.00,,CLR,0.00,VWS V14.01,2013-04-03 17:55:00,
2013-04-03 14:00:00,42.7,17.0,30.17,West,259,8.0,12.0,35,0.00,,CLR,0.00,VWS V14.01,2013-04-03 18:00:00,
2013-04-03 14:05:00,42.6,18.2,30.17,WNW,300,11.0,16.0,37,0.00,,CLR,0.00,VWS V14.01,2013-04-03 18:05:00,
2013-04-03 14:10:00,42.8,19.0,30.17,NNW,335,7.0,9.0,38,0.00,,CLR,0.00,VWS V14.01,2013-04-03 18:10:00,
2013-04-03 14:15:00,42.3,17.3,30.17,SW,231,8.0,11.0,36,0.00,,CLR,0.00,VWS V14.01,2013-04-03 18:15:00,
2013-04-03 14:20:00,41.9,17.5,30.17,WNW,297,10.0,14.0,37,0.00,,CLR,0.00,VWS V14.01,2013-04-03 18:20:00,
2013-04-03 14:26:00,41.8,18.1,30.17,WNW,297,9.0,22.0,38,0.00,,CLR,0.00,VWS V14.01,2013-04-03 18:26:00,
2013-04-03 14:31:00,42.7,20.1,30.17,WNW,288,6.0,10.0,40,0.00,,CLR,0.00,VWS V14.01,2013-04-03 18:31:00,
2013-04-03 14:36:00,42.4,16.7,30.17,WNW,283,7.0,12.0,35,0.00,,CLR,0.00,VWS V14.01,2013-04-03 18:36:00,
2013-04-03 14:41:00,42.6,17.5,30.17,NW,308,7.0,12.0,36,0.00,,CLR,0.00,VWS V14.01,2013-04-03 18:41:00,
2013-04-03 14:47:00,42.8,19.0,30.17,NW,304,9.0,11.0,38,0.00,,CLR,0.00,VWS V14.01,2013-04-03 18:47:00,
2013-04-03 14:52:00,42.2,16.5,30.17,NW,315,8.0,13.0,35,0.00,,CLR,0.00,VWS V14.01,2013-04-03 18:52:00,
2013-04-03 14:57:00,42.0,16.4,30.17,SW,230,6.0,18.0,35,0.00,,CLR,0.00,VWS V14.01,2013-04-03 18:57:00,
2013-04-03 15:02:00,43.0,17.2,30.17,WNW,294,10.0,17.0,35,0.00,,SCT075,0.00,VWS V14.01,2013-04-03 19:02:00,
2013-04-03 15:07:00,43.1,17.3,30.17,WNW,301,7.0,17.0,35,0.00,,SCT075,0.00,VWS V14.01,2013-04-03 19:07:00,
2013-04-03 15:12:00,42.9,17.8,30.17,West,264,11.0,17.0,36,0.00,,SCT075,0.00,VWS V14.01,2013-04-03 19:12:00,
2013-04-03 15:18:00,43.0,16.6,30.17,West,259,12.0,19.0,34,0.00,,SCT075,0.00,VWS V14.01,2013-04-03 19:18:00,
2013-04-03 15:23:00,42.1,16.4,30.18,NNW,340,10.0,14.0,35,0.00,,SCT075,0.00,VWS V14.01,2013-04-03 19:23:00,
2013-04-03 15:28:00,42.3,15.9,30.18,West,281,7.0,16.0,34,0.00,,SCT075,0.00,VWS V14.01,2013-04-03 19:28:00,
2013-04-03 15:33:00,42.6,16.2,30.18,NW,309,13.0,21.0,34,0.00,,SCT075,0.00,VWS V14.01,2013-04-03 19:33:00,
2013-04-03 15:38:00,43.1,18.0,30.18,NW,304,6.0,11.0,36,0.00,,SCT075,0.00,VWS V14.01,2013-04-03 19:38:00,
2013-04-03 15:43:00,43.1,16.7,30.18,WNW,300,12.0,18.0,34,0.00,,SCT075,0.00,VWS V14.01,2013-04-03 19:43:00,
2013-04-03 15:48:00,42.8,15.7,30.18,West,271,12.0,20.0,33,0.00,,SCT075,0.00,VWS V14.01,2013-04-03 19:48:00,
2013-04-03 15:53:00,42.3,14.6,30.18,WNW,290,11.0,21.0,32,0.00,,SCT075,0.00,VWS V14.01,2013-04-03 19:53:00,
2013-04-03 15:58:00,41.7,14.7,30.18,West,274,7.0,25.0,33,0.00,,SCT075,0.00,VWS V14.01,2013-04-03 19:58:00,
2013-04-03 16:03:00,42.2,15.2,30.18,West,281,8.0,18.0,33,0.00,,BKN080,0.00,VWS V14.01,2013-04-03 20:03:00,
2013-04-03 16:08:00,42.6,16.2,30.18,West,269,7.0,23.0,34,0.00,,BKN080,0.00,VWS V14.01,2013-04-03 20:08:00,
2013-04-03 16:14:00,43.1,16.0,30.18,WNW,287,9.0,22.0,33,0.00,,BKN080,0.00,VWS V14.01,2013-04-03 20:14:00,
2013-04-03 16:19:00,43.6,16.4,30.18,WNW,291,9.0,20.0,33,0.00,,BKN080,0.00,VWS V14.01,2013-04-03 20:19:00,
2013-04-03 16:24:00,43.9,17.4,30.19,SW,225,6.0,20.0,34,0.00,,BKN080,0.00,VWS V14.01,2013-04-03 20:24:00,
2013-04-03 16:29:00,43.4,15.5,30.19,NW,319,9.0,20.0,32,0.00,,BKN080,0.00,VWS V14.01,2013-04-03 20:29:00,
2013-04-03 16:34:00,43.2,16.7,30.19,West,278,8.0,26.0,34,0.00,,BKN080,0.00,VWS V14.01,2013-04-03 20:34:00,
2013-04-03 16:39:00,43.5,16.3,30.19,NW,322,12.0,24.0,33,0.00,,BKN080,0.00,VWS V14.01,2013-04-03 20:39:00,
2013-04-03 16:44:00,42.9,16.5,30.19,WNW,288,7.0,18.0,34,0.00,,BKN080,0.00,VWS V14.01,2013-04-03 20:44:00,
2013-04-03 16:49:00,41.5,15.9,30.19,NW,314,8.0,22.0,35,0.00,,BKN080,0.00,VWS V14.01,2013-04-03 20:49:00,
2013-04-03 16:55:00,41.4,15.8,30.19,NE,36,12.0,24.0,35,0.00,,BKN080,0.00,VWS V14.01,2013-04-03 20:55:00,
2013-04-03 17:00:00,42.0,15.7,30.19,NW,306,15.0,15.0,34,0.00,,BKN080,0.00,VWS V14.01,2013-04-03 21:00:00,
2013-04-03 17:05:00,42.5,16.1,30.20,WNW,300,7.0,9.0,34,0.00,,BKN080,0.00,VWS V14.01,2013-04-03 21:05:00,
2013-04-03 17:10:00,42.2,15.2,30.21,NW,324,17.0,19.0,33,0.00,,BKN080,0.00,VWS V14.01,2013-04-03 21:10:00,
2013-04-03 17:15:00,42.0,14.3,30.21,West,272,6.0,20.0,32,0.00,,BKN080,0.00,VWS V14.01,2013-04-03 21:15:00,
2013-04-03 17:20:00,42.2,14.5,30.21,NW,315,13.0,17.0,32,0.00,,BKN080,0.00,VWS V14.01,2013-04-03 21:20:00,
2013-04-03 17:25:00,41.9,14.9,30.22,WNW,295,14.0,14.0,33,0.00,,BKN080,0.00,VWS V14.01,2013-04-03 21:25:00,
2013-04-03 17:30:00,42.0,15.0,30.22,NW,307,11.0,11.0,33,0.00,,BKN080,0.00,VWS V14.01,2013-04-03 21:30:00,
2013-04-03 17:35:00,42.2,15.9,30.22,NW,310,10.0,21.0,34,0.00,,BKN080,0.00,VWS V14.01,2013-04-03 21:35:00,
2013-04-03 17:40:00,42.3,16.6,30.23,WSW,251,12.0,12.0,35,0.00,,BKN080,0.00,VWS V14.01,2013-04-03 21:40:00,
2013-04-03 17:45:00,41.9,14.2,30.23,WNW,283,14.0,26.0,32,0.00,,BKN080,0.00,VWS V14.01,2013-04-03 21:45:00,
2013-04-03 17:50:00,41.5,14.6,30.24,WNW,298,13.0,17.0,33,0.00,,BKN080,0.00,VWS V14.01,2013-04-03 21:50:00,
2013-04-03 17:56:00,41.3,15.1,30.25,NW,322,10.0,23.0,34,0.00,,BKN080,0.00,VWS V14.01,2013-04-03 21:56:00,
2013-04-03 18:01:00,41.2,15.6,30.25,NW,309,10.0,13.0,35,0.00,,BKN080,0.00,VWS V14.01,2013-04-03 22:01:00,
2013-04-03 18:06:00,41.2,15.6,30.25,WNW,295,7.0,17.0,35,0.00,,FEW080,0.00,VWS V14.01,2013-04-03 22:06:00,
2013-04-03 18:11:00,41.1,15.6,30.25,WNW,301,14.0,14.0,35,0.00,,FEW080,0.00,VWS V14.01,2013-04-03 22:11:00,
2013-04-03 18:16:00,40.9,14.7,30.25,WNW,293,13.0,18.0,34,0.00,,FEW080,0.00,VWS V14.01,2013-04-03 22:16:00,
2013-04-03 18:21:00,40.5,15.0,30.25,West,267,15.0,21.0,35,0.00,,FEW080,0.00,VWS V14.01,2013-04-03 22:21:00,
2013-04-03 18:26:00,40.4,14.9,30.25,WNW,302,6.0,16.0,35,0.00,,FEW080,0.00,VWS V14.01,2013-04-03 22:26:00,
2013-04-03 18:31:00,40.3,16.7,30.26,WNW,295,10.0,16.0,38,0.00,,FEW080,0.00,VWS V14.01,2013-04-03 22:31:00,
2013-04-03 18:36:00,40.0,16.5,30.26,WNW,301,7.0,11.0,38,0.00,,FEW080,0.00,VWS V14.01,2013-04-03 22:36:00,
2013-04-03 18:41:00,40.0,17.1,30.26,WNW,302,11.0,24.0,39,0.00,,FEW080,0.00,VWS V14.01,2013-04-03 22:41:00,
2013-04-03 18:47:00,39.6,14.9,30.26,WNW,302,5.0,12.0,36,0.00,,FEW080,0.00,VWS V14.01,2013-04-03 22:47:00,
2013-04-03 18:52:00,39.5,15.4,30.26,WNW,291,10.0,10.0,37,0.00,,FEW080,0.00,VWS V14.01,2013-04-03 22:52:00,
2013-04-03 18:57:00,39.2,16.3,30.27,West,280,3.0,10.0,39,0.00,,FEW080,0.00,VWS V14.01,2013-04-03 22:57:00,
2013-04-03 19:02:00,39.1,17.4,30.27,West,277,9.0,10.0,41,0.00,,FEW080,0.00,VWS V14.01,2013-04-03 23:02:00,
2013-04-03 19:07:00,38.9,17.2,30.27,WNW,293,3.0,8.0,41,0.00,,FEW080,0.00,VWS V14.01,2013-04-03 23:07:00,
2013-04-03 19:12:00,38.7,16.5,30.28,NW,308,10.0,10.0,40,0.00,,FEW080,0.00,VWS V14.01,2013-04-03 23:12:00,
2013-04-03 19:17:00,38.3,17.2,30.28,West,274,2.0,9.0,42,0.00,,FEW080,0.00,VWS V14.01,2013-04-03 23:17:00,
2013-04-03 19:22:00,37.9,16.9,30.28,West,281,4.0,8.0,42,0.00,,FEW080,0.00,VWS V14.01,2013-04-03 23:22:00,
2013-04-03 19:27:00,37.4,17.5,30.28,NNW,335,6.0,7.0,44,0.00,,FEW080,0.00,VWS V14.01,2013-04-03 23:27:00,
2013-04-03 19:32:00,37.0,17.6,30.28,WNW,298,3.0,3.0,45,0.00,,FEW080,0.00,VWS V14.01,2013-04-03 23:32:00,
2013-04-03 19:37:00,36.6,17.8,30.29,WNW,294,2.0,5.0,46,0.00,,FEW080,0.00,VWS V14.01,2013-04-03 23:37:00,
2013-04-03 19:42:00,36.3,17.5,30.28,West,276,2.0,6.0,46,0.00,,FEW080,0.00,VWS V14.01,2013-04-03 23:42:00,
2013-04-03 19:47:00,36.0,17.7,30.29,NNW,328,6.0,10.0,47,0.00,,FEW080,0.00,VWS V14.01,2013-04-03 23:47:00,
2013-04-03 19:52:00,36.0,16.7,30.29,WNW,302,5.0,9.0,45,0.00,,FEW080,0.00,VWS V14.01,2013-04-03 23:52:00,
2013-04-03 19:58:00,35.9,15.1,30.29,WNW,295,6.0,14.0,42,0.00,,FEW080,0.00,VWS V14.01,2013-04-03 23:58:00,
2013-04-03 20:03:00,35.9,13.9,30.30,NW,305,6.0,14.0,40,0.00,,FEW080,0.00,VWS V14.01,2013-04-04 00:03:00,
2013-04-03 20:08:00,35.8,14.4,30.30,WNW,295,7.0,9.0,41,0.00,,FEW080,0.00,VWS V14.01,2013-04-04 00:08:00,
2013-04-03 20:13:00,35.6,14.8,30.30,NW,319,6.0,8.0,42,0.00,,FEW080,0.00,VWS V14.01,2013-04-04 00:13:00,
2013-04-03 20:18:00,35.5,14.7,30.30,NW,319,3.0,9.0,42,0.00,,FEW080,0.00,VWS V14.01,2013-04-04 00:18:00,
2013-04-03 20:23:00,35.3,14.5,30.31,WNW,283,7.0,8.0,42,0.00,,FEW080,0.00,VWS V14.01,2013-04-04 00:23:00,
2013-04-03 20:28:00,35.2,14.4,30.31,WNW,300,5.0,9.0,42,0.00,,FEW080,0.00,VWS V14.01,2013-04-04 00:28:00,
2013-04-03 20:33:00,35.0,14.8,30.31,WNW,303,3.0,6.0,43,0.00,,FEW080,0.00,VWS V14.01,2013-04-04 00:33:00,
2013-04-03 20:38:00,34.8,14.6,30.31,WNW,294,1.0,5.0,43,0.00,,FEW080,0.00,VWS V14.01,2013-04-04 00:38:00,
2013-04-03 20:43:00,34.7,14.5,30.32,WNW,294,1.0,7.0,43,0.00,,FEW080,0.00,VWS V14.01,2013-04-04 00:43:00,
2013-04-03 20:48:00,34.5,14.9,30.31,NW,314,3.0,7.0,44,0.00,,FEW080,0.00,VWS V14.01,2013-04-04 00:48:00,
2013-04-03 20:54:00,34.3,14.1,30.31,NW,304,4.0,8.0,43,0.00,,FEW080,0.00,VWS V14.01,2013-04-04 00:54:00,
2013-04-03 20:59:00,34.5,14.3,30.31,WNW,290,4.0,8.0,43,0.00,,FEW080,0.00,VWS V14.01,2013-04-04 00:59:00,
2013-04-03 21:04:00,34.3,14.7,30.31,WNW,303,5.0,9.0,44,0.00,,FEW080,0.00,VWS V14.01,2013-04-04 01:04:00,
2013-04-03 21:09:00,34.1,14.5,30.31,WNW,291,6.0,10.0,44,0.00,,FEW080,0.00,VWS V14.01,2013-04-04 01:09:00,
2013-04-03 21:14:00,34.2,14.6,30.31,WNW,293,5.0,10.0,44,0.00,,FEW080,0.00,VWS V14.01,2013-04-04 01:14:00,
2013-04-03 21:19:00,34.1,15.0,30.31,NW,307,3.0,4.0,45,0.00,,FEW080,0.00,VWS V14.01,2013-04-04 01:19:00,
2013-04-03 21:24:00,33.7,15.1,30.31,West,276,1.0,6.0,46,0.00,,FEW080,0.00,VWS V14.01,2013-04-04 01:24:00,
2013-04-03 21:29:00,33.1,15.6,30.32,West,265,0.0,1.0,48,0.00,,FEW080,0.00,VWS V14.01,2013-04-04 01:29:00,
2013-04-03 21:34:00,32.5,16.9,30.32,WNW,285,4.0,5.0,52,0.00,,FEW080,0.00,VWS V14.01,2013-04-04 01:34:00,
2013-04-03 21:39:00,32.2,17.9,30.32,WNW,289,3.0,6.0,55,0.00,,FEW080,0.00,VWS V14.01,2013-04-04 01:39:00,
2013-04-03 21:44:00,32.1,17.8,30.32,WNW,302,4.0,7.0,55,0.00,,FEW080,0.00,VWS V14.01,2013-04-04 01:44:00,
2013-04-03 21:49:00,31.8,17.9,30.32,WNW,297,5.0,8.0,56,0.00,,FEW080,0.00,VWS V14.01,2013-04-04 01:49:00,
2013-04-03 21:55:00,31.8,17.9,30.32,WNW,289,5.0,6.0,56,0.00,,FEW080,0.00,VWS V14.01,2013-04-04 01:55:00,
2013-04-03 22:00:00,31.8,17.5,30.33,WNW,296,2.0,5.0,55,0.00,,FEW080,0.00,VWS V14.01,2013-04-04 02:00:00,
2013-04-03 22:05:00,31.7,17.8,30.33,WNW,297,2.0,2.0,56,0.00,,CLR,0.00,VWS V14.01,2013-04-04 02:05:00,
2013-04-03 22:10:00,31.8,17.1,30.33,NW,306,4.0,8.0,54,0.00,,CLR,0.00,VWS V14.01,2013-04-04 02:10:00,
2013-04-03 22:15:00,31.8,17.1,30.33,WNW,288,4.0,7.0,54,0.00,,CLR,0.00,VWS V14.01,2013-04-04 02:15:00,
2013-04-03 22:20:00,31.7,16.1,30.32,WNW,302,5.0,8.0,52,0.00,,CLR,0.00,VWS V14.01,2013-04-04 02:20:00,
2013-04-03 22:25:00,31.7,16.1,30.32,WNW,298,5.0,7.0,52,0.00,,CLR,0.00,VWS V14.01,2013-04-04 02:25:00,
2013-04-03 22:30:00,31.8,16.2,30.32,NW,310,2.0,9.0,52,0.00,,CLR,0.00,VWS V14.01,2013-04-04 02:30:00,
2013-04-03 22:35:00,31.3,16.2,30.33,West,277,2.0,2.0,53,0.00,,CLR,0.00,VWS V14.01,2013-04-04 02:35:00,
2013-04-03 22:40:00,31.3,15.3,30.33,NW,305,7.0,9.0,51,0.00,,CLR,0.00,VWS V14.01,2013-04-04 02:40:00,
2013-04-03 22:45:00,31.5,15.0,30.33,NW,315,5.0,5.0,50,0.00,,CLR,0.00,VWS V14.01,2013-04-04 02:45:00,
2013-04-03 22:50:00,31.5,15.0,30.32,WNW,292,4.0,8.0,50,0.00,,CLR,0.00,VWS V14.01,2013-04-04 02:50:00,
2013-04-03 22:55:00,31.5,14.6,30.32,NW,316,2.0,8.0,49,0.00,,CLR,0.00,VWS V14.01,2013-04-04 02:55:00,
2013-04-03 23:00:00,31.4,14.5,30.32,NW,315,2.0,7.0,49,0.00,,CLR,0.00,VWS V14.01,2013-04-04 03:00:00,
2013-04-03 23:05:00,31.4,14.5,30.32,WNW,294,4.0,11.0,49,0.00,,CLR,0.00,VWS V14.01,2013-04-04 03:05:00,
2013-04-03 23:10:00,31.4,14.5,30.31,NW,304,9.0,9.0,49,0.00,,CLR,0.00,VWS V14.01,2013-04-04 03:10:00,
2013-04-03 23:15:00,31.5,14.1,30.31,WNW,287,1.0,1.0,48,0.00,,CLR,0.00,VWS V14.01,2013-04-04 03:15:00,
2013-04-03 23:20:00,31.5,14.1,30.32,WNW,299,0.0,2.0,48,0.00,,CLR,0.00,VWS V14.01,2013-04-04 03:20:00,
2013-04-03 23:25:00,31.3,13.9,30.31,West,277,0.0,1.0,48,0.00,,CLR,0.00,VWS V14.01,2013-04-04 03:25:00,
2013-04-03 23:30:00,31.3,13.9,30.31,East,79,0.0,1.0,48,0.00,,CLR,0.00,VWS V14.01,2013-04-04 03:30:00,
2013-04-03 23:35:00,31.2,13.8,30.31,NE,42,1.0,1.0,48,0.00,,CLR,0.00,VWS V14.01,2013-04-04 03:35:00,
2013-04-03 23:40:00,30.9,13.5,30.31,SE,141,0.0,0.0,48,0.00,,CLR,0.00,VWS V14.01,2013-04-04 03:40:00,
2013-04-03 23:46:00,30.7,13.8,30.31,WSW,245,0.0,2.0,49,0.00,,CLR,0.00,VWS V14.01,2013-04-04 03:46:00,
2013-04-03 23:51:00,30.7,13.8,30.31,WNW,300,0.0,1.0,49,0.00,,CLR,0.00,VWS V14.01,2013-04-04 03:51:00,
2013-04-03 23:56:00,30.6,14.2,30.31,West,281,0.0,3.0,50,0.00,,CLR,0.00,VWS V14.01,2013-04-04 03:56:00,